When you browse on this site, cookies collect data to enhance your experience and personalize the content and advertising you see.
Visit our Privacy Policy to learn more. By continuing to use the site, you agree to this use of cookies and data.
  • In United Kingdom
  • List of Countries
  • For 7 days
  • Water Temperature
  • Satellite Maps
  • Weather Map
  • Weather Widgets
  • user-avatar
    Login

    Hourly Weather Vasyl'kivs'ke

    Today, 19 April, Friday

    Time Temperature Precipitation Wind Pressure Humidity
    00:00 +5°C° 0 mm 2 mps 756 mmHg 55%
    01:00 +5°C° 0 mm 2 mps 756 mmHg 56%
    02:00 +5°C° 0 mm 2 mps 755 mmHg 57%
    03:00 +4°C° 0 mm 2 mps 755 mmHg 58%
    04:00 +4°C° 0 mm 2 mps 756 mmHg 59%
    05:00 +4°C° 0 mm 2 mps 756 mmHg 60%
    06:00 +4°C° 0 mm 3 mps 756 mmHg 54%
    07:00 +5°C° 0 mm 4 mps 756 mmHg 49%
    08:00 +6°C° 0 mm 5 mps 756 mmHg 43%
    09:00 +7°C° 0 mm 5 mps 756 mmHg 41%
    10:00 +8°C° 0 mm 5 mps 756 mmHg 39%
    11:00 +9°C° 0 mm 6 mps 756 mmHg 37%
    12:00 +9°C° 0 mm 6 mps 756 mmHg 36%
    13:00 +9°C° 0 mm 6 mps 756 mmHg 36%
    14:00 +9°C° 0 mm 6 mps 756 mmHg 35%
    15:00 +9°C° 0 mm 6 mps 756 mmHg 37%
    16:00 +9°C° 0 mm 5 mps 756 mmHg 39%
    17:00 +8°C° 0 mm 5 mps 756 mmHg 40%
    18:00 +8°C° 0 mm 4 mps 756 mmHg 44%
    19:00 +7°C° 0 mm 4 mps 756 mmHg 47%
    20:00 +7°C° 0 mm 3 mps 756 mmHg 51%
    21:00 +5°C° 0 mm 3 mps 756 mmHg 53%
    22:00 +5°C° 0 mm 3 mps 757 mmHg 54%
    23:00 +4°C° 0 mm 3 mps 757 mmHg 56%

    Tomorrow, 20 April, Saturday

    Time Temperature Precipitation Wind Pressure Humidity
    00:00 +4°C° 0 mm 3 mps 757 mmHg 57%
    01:00 +3°C° 0 mm 3 mps 757 mmHg 59%
    02:00 +3°C° 0 mm 3 mps 757 mmHg 60%
    03:00 +2°C° 0 mm 3 mps 756 mmHg 62%
    04:00 +2°C° 0 mm 3 mps 756 mmHg 63%
    05:00 +2°C° 0 mm 3 mps 756 mmHg 64%
    06:00 +4°C° 0 mm 3 mps 757 mmHg 57%
    07:00 +5°C° 0 mm 4 mps 757 mmHg 50%
    08:00 +7°C° 0 mm 4 mps 757 mmHg 43%
    09:00 +8°C° 0 mm 4 mps 757 mmHg 40%
    10:00 +10°C° 0 mm 4 mps 757 mmHg 38%
    11:00 +11°C° 0 mm 4 mps 757 mmHg 35%
    12:00 +12°C° 0 mm 4 mps 756 mmHg 34%
    13:00 +12°C° 0 mm 4 mps 756 mmHg 33%
    14:00 +13°C° 0 mm 4 mps 756 mmHg 33%
    15:00 +12°C° 0 mm 4 mps 756 mmHg 34%
    16:00 +12°C° 0 mm 3 mps 755 mmHg 36%
    17:00 +11°C° 0 mm 3 mps 755 mmHg 38%
    18:00 +10°C° 0 mm 3 mps 755 mmHg 41%
    19:00 +9°C° 0 mm 2 mps 756 mmHg 44%
    20:00 +8°C° 0 mm 2 mps 756 mmHg 48%
    21:00 +8°C° 0 mm 2 mps 756 mmHg 49%
    22:00 +7°C° 0 mm 2 mps 756 mmHg 50%
    23:00 +7°C° 0 mm 2 mps 756 mmHg 52%

    Day after tomorrow, 21 April, Sunday

    Time Temperature Precipitation Wind Pressure Humidity
    00:00 +6°C° 0 mm 2 mps 756 mmHg 54%
    01:00 +6°C° 0 mm 2 mps 756 mmHg 55%
    02:00 +5°C° 0 mm 2 mps 756 mmHg 57%
    03:00 +5°C° 0 mm 2 mps 756 mmHg 59%
    04:00 +5°C° 0 mm 2 mps 756 mmHg 60%
    05:00 +4°C° 0 mm 2 mps 756 mmHg 62%
    06:00 +5°C° 0 mm 3 mps 756 mmHg 56%
    07:00 +8°C° 0 mm 3 mps 756 mmHg 50%
    08:00 +10°C° 0 mm 4 mps 757 mmHg 44%
    09:00 +11°C° 0 mm 4 mps 757 mmHg 40%
    10:00 +12°C° 0 mm 4 mps 757 mmHg 37%
    11:00 +13°C° 0 mm 4 mps 757 mmHg 34%
    12:00 +13°C° 0 mm 4 mps 757 mmHg 35%
    13:00 +13°C° 0 mm 4 mps 756 mmHg 36%
    14:00 +13°C° 0 mm 3 mps 756 mmHg 37%
    15:00 +13°C° 0 mm 3 mps 756 mmHg 38%
    16:00 +12°C° 0 mm 3 mps 756 mmHg 40%
    17:00 +12°C° 0 mm 3 mps 756 mmHg 42%
    18:00 +11°C° 0 mm 3 mps 756 mmHg 44%
    19:00 +11°C° 0 mm 3 mps 757 mmHg 46%
    20:00 +10°C° 0 mm 2 mps 757 mmHg 48%
    21:00 +10°C° 0 mm 2 mps 757 mmHg 49%
    22:00 +9°C° 0 mm 3 mps 757 mmHg 51%
    23:00 +9°C° 0 mm 3 mps 757 mmHg 52%

    22 April, Monday

    Time Temperature Precipitation Wind Pressure Humidity
    00:00 +9°C° 0 mm 3 mps 757 mmHg 53%
    01:00 +8°C° 0 mm 3 mps 758 mmHg 54%
    02:00 +8°C° 0 mm 3 mps 758 mmHg 55%
    03:00 +8°C° 0 mm 3 mps 758 mmHg 57%
    04:00 +7°C° 0 mm 3 mps 758 mmHg 60%
    05:00 +5°C° 0 mm 3 mps 758 mmHg 62%
    06:00 +8°C° 0 mm 3 mps 758 mmHg 55%
    07:00 +10°C° 0 mm 4 mps 759 mmHg 47%
    08:00 +10°C° 0 mm 5 mps 759 mmHg 40%
    09:00 +12°C° 0 mm 5 mps 759 mmHg 39%
    10:00 +13°C° 0 mm 5 mps 759 mmHg 38%
    11:00 +14°C° 0 mm 5 mps 759 mmHg 37%
    12:00 +14°C° 0 mm 5 mps 759 mmHg 36%
    13:00 +14°C° 0 mm 5 mps 759 mmHg 36%
    14:00 +14°C° 0 mm 4 mps 759 mmHg 36%
    15:00 +14°C° 0 mm 4 mps 759 mmHg 38%
    16:00 +13°C° 0 mm 4 mps 759 mmHg 41%
    17:00 +13°C° 0 mm 4 mps 759 mmHg 44%
    18:00 +12°C° 0 mm 3 mps 759 mmHg 48%
    19:00 +10°C° 0 mm 3 mps 759 mmHg 52%
    20:00 +9°C° 0 mm 3 mps 760 mmHg 56%
    21:00 +8°C° 0 mm 3 mps 760 mmHg 57%
    22:00 +8°C° 0 mm 2 mps 760 mmHg 59%
    23:00 +8°C° 0 mm 2 mps 760 mmHg 60%

    23 April, Tuesday

    Time Temperature Precipitation Wind Pressure Humidity
    00:00 +7°C° 0 mm 2 mps 760 mmHg 61%
    01:00 +7°C° 0 mm 2 mps 760 mmHg 62%
    02:00 +7°C° 0 mm 2 mps 760 mmHg 64%
    03:00 +6°C° 0 mm 2 mps 760 mmHg 66%
    04:00 +6°C° 0 mm 2 mps 760 mmHg 67%
    05:00 +6°C° 0 mm 2 mps 761 mmHg 69%
    06:00 +8°C° 0 mm 2 mps 761 mmHg 63%
    07:00 +10°C° 0 mm 3 mps 761 mmHg 57%
    08:00 +12°C° 0 mm 3 mps 761 mmHg 51%
    09:00 +12°C° 0 mm 3 mps 761 mmHg 49%
    10:00 +13°C° 0 mm 3 mps 761 mmHg 47%
    11:00 +13°C° 0 mm 3 mps 761 mmHg 45%
    12:00 +13°C° 0 mm 3 mps 761 mmHg 45%
    13:00 +14°C° 0 mm 3 mps 761 mmHg 45%
    14:00 +14°C° 0 mm 3 mps 761 mmHg 45%
    15:00 +14°C° 0 mm 2 mps 761 mmHg 48%
    16:00 +14°C° 0 mm 2 mps 761 mmHg 51%
    17:00 +14°C° 0 mm 2 mps 761 mmHg 54%
    18:00 +13°C° 0 mm 2 mps 761 mmHg 55%
    19:00 +13°C° 0 mm 2 mps 761 mmHg 56%
    20:00 +12°C° 0 mm 1 mps 761 mmHg 57%
    21:00 +12°C° 0 mm 1 mps 761 mmHg 58%
    22:00 +12°C° 0 mm 1 mps 761 mmHg 59%
    23:00 +11°C° 0 mm 1 mps 761 mmHg 61%

    24 April, Wednesday

    Time Temperature Precipitation Wind Pressure Humidity
    00:00 +11°C° 0 mm 1 mps 761 mmHg 61%
    01:00 +11°C° 0 mm 1 mps 761 mmHg 61%
    02:00 +11°C° 0 mm 1 mps 761 mmHg 62%
    03:00 +11°C° 0 mm 1 mps 762 mmHg 63%
    04:00 +9°C° 0 mm 2 mps 762 mmHg 64%
    05:00 +9°C° 0 mm 2 mps 762 mmHg 65%
    06:00 +12°C° 0 mm 2 mps 762 mmHg 60%
    07:00 +13°C° 0 mm 2 mps 762 mmHg 55%
    08:00 +14°C° 0 mm 3 mps 762 mmHg 50%
    09:00 +16°C° 0 mm 3 mps 762 mmHg 46%
    10:00 +17°C° 0 mm 3 mps 761 mmHg 42%
    11:00 +18°C° 0 mm 3 mps 761 mmHg 38%
    12:00 +18°C° 0 mm 3 mps 761 mmHg 37%
    13:00 +19°C° 0 mm 3 mps 761 mmHg 36%
    14:00 +19°C° 0 mm 3 mps 760 mmHg 35%
    15:00 +19°C° 0 mm 2 mps 760 mmHg 37%
    16:00 +19°C° 0 mm 2 mps 760 mmHg 38%
    17:00 +19°C° 0 mm 2 mps 759 mmHg 40%
    18:00 +17°C° 0 mm 2 mps 759 mmHg 44%
    19:00 +16°C° 0 mm 1 mps 759 mmHg 49%
    20:00 +14°C° 0 mm 1 mps 759 mmHg 53%
    21:00 +14°C° 0 mm 1 mps 759 mmHg 55%
    22:00 +13°C° 0 mm 2 mps 759 mmHg 57%
    23:00 +13°C° 0 mm 2 mps 759 mmHg 60%
    Show more